Home   Weather   Dachau   Past weeks

Flag for Germany Past Weather in Dachau, Bavaria, Germany — Yesterday and Last 2 Weeks

Now
28 °F

Passing clouds.


Feels Like: 23 °F
Forecast: 22 / 33 °F
Wind: 5 mph from Northeast

Location: Munich / Franz Josef Strauss Airport

Current Time: Dec 3, 2016 at 4:44:40 pm

Latest Report: Dec 3, 2016 at 4:20 pm


Visibility: 4 mi

Pressure: 30.21 "Hg (28.36 "Hg at 502m altitude)

Humidity: 93%

Dew Point: 27 °F

Location of DachauLocation

Past Weather in Dachau — Graph

°F

Dachau Temperature Yesterday

Maximum temperature yesterday: 41 °F (at 11:20 am)
Minimum temperature yesterday: 34 °F (at 11:50 pm)
Average temperature yesterday: 37 °F

High & Low Weather Summary for the Past Weeks

 TemperatureHumidityPressure
High61 °F (Nov 21, 1:50 pm)100% (Nov 19, 1:50 am)30.51 "Hg (Nov 19, 1:50 am)
Low14 °F (Nov 30, 5:20 am)36% (Dec 1, 2:50 pm)29.68 "Hg (Nov 21, 11:50 am)
Average38 °F89%30.07 "Hg
* Reported Nov 18 3:20 pm — Dec 3 3:20 pm, Dachau, Weather by CustomWeather, © 2016

Note: Actual official high and low records may vary slightly from our data, if they occured in-between our weather recording intervals... More about our weather records

Advertising

Dachau Weather History for the Previous 24 Hours

Scroll right to see more
 ConditionsComfort  
Time TempWeatherWind HumidityBarometerVisibility
3:20 pm
Sat, Dec 3
30 °FPassing clouds.6 mph93%30.21 "HgN/A
2:50 pm30 °FPassing clouds.7 mph93%30.18 "HgN/A
2:20 pm30 °FScattered clouds.7 mph100%30.21 "HgN/A
1:50 pm28 °FScattered clouds.7 mph100%30.21 "HgN/A
1:20 pm28 °FPartly sunny.8 mph100%30.21 "Hg6 mi
12:50 pm27 °FPartly sunny.9 mph100%30.18 "Hg4 mi
12:20 pm27 °FPartly sunny.7 mph100%30.21 "Hg4 mi
11:50 am27 °FIce fog.7 mph100%30.21 "Hg3 mi
11:20 am27 °FIce fog.6 mph100%30.21 "Hg1 mi
10:50 am27 °FIce fog.8 mph100%30.21 "Hg1 mi
10:20 am27 °FIce fog.6 mph100%30.21 "Hg1 mi
9:20 am25 °FCold.5 mph100%30.21 "Hg1 mi
8:50 am25 °FIce fog.3 mph100%30.18 "Hg0 mi
8:20 am25 °FIce fog.3 mph100%30.18 "Hg0 mi
7:50 am25 °FIce fog.3 mph100%30.18 "Hg0 mi
7:20 am23 °FIce fog.3 mph100%30.18 "Hg0 mi
6:50 am23 °FCold.3 mph100%30.18 "Hg1 mi
6:20 am23 °FCold.3 mph100%30.18 "Hg1 mi
5:50 am23 °FCold.1 mph100%30.15 "Hg1 mi
5:20 am23 °FCold.1 mph100%30.15 "Hg1 mi
4:50 am25 °FCold.1 mph100%30.15 "Hg1 mi
4:20 am27 °FSnow. Overcast.5 mph100%30.18 "Hg1 mi
3:50 am27 °FSnow. Overcast.2 mph100%30.15 "Hg1 mi
3:20 am28 °FSnow. Overcast.5 mph100%30.15 "Hg1 mi
2:20 am30 °FChilly.3 mph100%30.15 "Hg1 mi
1:50 am32 °FIce fog.2 mph100%30.15 "Hg2 mi
1:20 am32 °FPassing clouds.3 mph100%30.15 "Hg4 mi
12:50 am32 °FPassing clouds.3 mph100%30.15 "Hg4 mi
12:20 am34 °FPassing clouds.3 mph100%30.15 "Hg5 mi
11:50 pm
Fri, Dec 2
34 °FPassing clouds.2 mph100%30.15 "Hg5 mi
11:20 pm36 °FPartly cloudy.2 mph100%30.15 "Hg5 mi
10:50 pm36 °FPassing clouds.1 mph100%30.15 "Hg6 mi
10:20 pm36 °FPartly cloudy.2 mph100%30.15 "Hg6 mi
9:50 pm36 °FPassing clouds.2 mph100%30.15 "Hg6 mi
9:20 pm36 °FPassing clouds.2 mph100%30.15 "HgN/A
8:50 pm36 °FPassing clouds.2 mph100%30.15 "HgN/A
8:20 pm36 °FPassing clouds.3 mph100%30.15 "HgN/A
7:50 pm36 °FPassing clouds.1 mph100%30.15 "HgN/A
7:20 pm37 °FDrizzle. Overcast.1 mph93%30.15 "Hg6 mi
6:50 pm36 °FDrizzle. Low clouds.1 mph100%30.15 "Hg5 mi
6:20 pm37 °FLow clouds.1 mph93%30.15 "HgN/A
5:50 pm37 °FPassing clouds.2 mph93%30.15 "HgN/A
5:20 pm37 °FPassing clouds.5 mph93%30.15 "HgN/A
4:50 pm39 °FPassing clouds.6 mph100%30.12 "Hg6 mi
4:20 pm39 °FDrizzle. Partly sunny.6 mph100%30.12 "Hg6 mi
Weather by CustomWeather, © 2016

See weather overviewHow to use our weather pages